Location: Poprad
(49.0500°N, 20.3000°E)
Time: 11:27:25
(UTC+01:00)

ISS - Pass Details

Date: 30 January 2021
Orbit: 417 x 422 km, 51.6° (Epoch: 07 March)

Event Time Altitude Azimuth Distance (km) Brightness Sun altitude
Rises 17:14:46 0° 278° (W) 2,372 1.4 -7.2°
Reaches altitude 10° 17:16:54 10° 284° (WNW) 1,508 0.1 -7.5°
Maximum altitude 17:20:14 52° 2° (N) 530 -3.4 -8.0°
Enters shadow 17:23:18 12° 79° (E) 1,412 -1.8 -8.5°
